Weather History for Wheeling, WV

Change the Weather History Date:

Sunday, December 30, 2012

  Actual Average Record
Temperature  
Mean Temperature 26 °F 30 °F  
Max Temperature 29 °F 36 °F 53 °F (2011)
Min Temperature 23 °F 23 °F 12 °F (2001)
Degree Days  
Heating Degree Days 39 35  
Month to date heating degree days 763 960  
Since 1 July heating degree days 1988 2088  
Cooling Degree Days 0    
Month to date cooling degree days 0  
Year to date cooling degree days 996  
Moisture  
Dew Point 20 °F    
Average Humidity 83    
Maximum Humidity 92    
Minimum Humidity 74    
Precipitation  
Precipitation T in 0.09 in 0.37 in (1984)
Month to date precipitation 4.73 2.42  
Sea Level Pressure  
Sea Level Pressure 30.26 in    
Wind  
Wind Speed 12 mph (West)    
Max Wind Speed 23 mph    
Max Gust Speed 30 mph    
Visibility 8 miles    
Events Snow    
T = Trace of Precipitation, MM = Missing Value Source: NWS Daily Summary

Daily Weather History Graph

Daily Weather History Graph

Search for Another Location

Airport:

Trip Planner

Search our weather history database for the weather conditions in past years. The results will help you decide how hot, cold, wet, or windy it might be!

Date:

Astronomy

Dec. 30, 2012 Rise Set
Actual Time 7:44 AM EST 5:06 PM EST
Civil Twilight 7:14 AM EST 5:36 PM EST
Nautical Twilight 6:40 AM EST 6:10 PM EST
Astronomical Twilight 6:07 AM EST 6:43 PM EST
Moon 7:36 PM EST (12/30) 8:52 AM EST (12/30)
Length of Visible Light 10h 22m
Length of Day
9h 21m
Waning Gibbous, 95% of the Moon is Illuminated
Dec 30
Waning Gibbous
Jan 4
Last Quarter
Jan 11
New
Jan 18
First Quarter
Jan 26
Full

Hourly Weather History & Observations

Time (EST) Temp. Windchill Dew Point Humidity Pressure Visibility Wind Dir Wind Speed Gust Speed Precip Events Conditions
12:11 AM 28.4 °F 20.4 °F 24.8 °F 86% 29.95 in 3.0 mi West 8.1 mph - 0.00 in Snow Light Snow
12:34 AM 28.4 °F 18.5 °F 24.8 °F 86% 29.96 in 4.0 mi WNW 11.5 mph - 0.00 in Snow Light Snow
1:53 AM 28.0 °F 18.1 °F 23.0 °F 81% 30.06 in 5.0 mi WNW 11.5 mph 23.0 mph 0.00 in Snow Light Snow
2:31 AM 26.6 °F 14.3 °F 23.0 °F 86% 30.03 in 10.0 mi West 16.1 mph 23.0 mph 0.00 in   Overcast
2:40 AM 26.6 °F 15.7 °F 23.0 °F 86% 30.04 in 10.0 mi West 12.7 mph - 0.00 in   Overcast
2:53 AM 27.0 °F 16.1 °F 21.9 °F 81% 30.10 in 10.0 mi WNW 12.7 mph 24.2 mph 0.00 in   Overcast
3:16 AM 26.6 °F 15.2 °F 21.2 °F 80% 30.06 in 10.0 mi West 13.8 mph 21.9 mph N/A   Overcast
3:53 AM 27.0 °F 15.6 °F 19.0 °F 72% 30.14 in 10.0 mi WNW 13.8 mph 26.5 mph N/A   Overcast
4:53 AM 26.1 °F 13.6 °F 19.0 °F 75% 30.17 in 10.0 mi WNW 16.1 mph 25.3 mph N/A   Overcast
5:53 AM 26.1 °F 16.8 °F 19.0 °F 75% 30.20 in 10.0 mi West 9.2 mph 18.4 mph N/A   Overcast
6:53 AM 26.1 °F 15.6 °F 19.0 °F 75% 30.25 in 10.0 mi West 11.5 mph - N/A   Overcast
7:44 AM 26.6 °F 16.2 °F 19.4 °F 74% 30.22 in 7.0 mi West 11.5 mph - 0.00 in Snow Light Snow
7:53 AM 26.1 °F 16.2 °F 19.9 °F 78% 30.28 in 4.0 mi West 10.4 mph - 0.00 in Snow Light Snow
8:30 AM 26.6 °F 16.8 °F 21.2 °F 80% 30.25 in 6.0 mi West 10.4 mph - 0.00 in   Haze
8:53 AM 27.0 °F 17.3 °F 21.0 °F 78% 30.31 in 9.0 mi West 10.4 mph - 0.00 in   Overcast
9:53 AM 26.1 °F 13.6 °F 21.0 °F 81% 30.34 in 4.0 mi West 16.1 mph 24.2 mph 0.00 in Snow Light Snow
10:53 AM 26.1 °F 16.2 °F 21.0 °F 81% 30.37 in 4.0 mi West 10.4 mph 21.9 mph 0.00 in Snow Light Snow
11:53 AM 26.1 °F 14.0 °F 21.0 °F 81% 30.37 in 5.0 mi WSW 15.0 mph 23.0 mph 0.00 in   Haze
12:53 PM 26.1 °F 14.5 °F 21.0 °F 81% 30.35 in 7.0 mi West 13.8 mph - N/A   Overcast
1:22 PM 26.6 °F 15.2 °F 21.2 °F 80% 30.30 in 9.0 mi WSW 13.8 mph 21.9 mph N/A   Overcast
1:53 PM 26.1 °F 14.5 °F 19.9 °F 78% 30.36 in 10.0 mi WSW 13.8 mph 23.0 mph N/A   Overcast
2:31 PM 26.6 °F 15.2 °F 19.4 °F 74% 30.31 in 10.0 mi West 13.8 mph - N/A   Overcast
2:53 PM 26.1 °F 13.6 °F 19.0 °F 75% 30.37 in 10.0 mi WSW 16.1 mph 23.0 mph N/A   Overcast
3:53 PM 26.1 °F 15.6 °F 19.0 °F 75% 30.39 in 10.0 mi WSW 11.5 mph 21.9 mph N/A   Overcast
4:53 PM 26.1 °F 15.6 °F 19.0 °F 75% 30.38 in 10.0 mi WSW 11.5 mph - N/A   Overcast
5:53 PM 25.0 °F 16.3 °F 18.0 °F 75% 30.38 in 10.0 mi West 8.1 mph - N/A   Overcast
6:53 PM 25.0 °F 17.1 °F 18.0 °F 75% 30.38 in 10.0 mi WSW 6.9 mph - N/A   Overcast
7:53 PM 25.0 °F 15.5 °F 18.0 °F 75% 30.40 in 10.0 mi SW 9.2 mph 16.1 mph N/A   Overcast
8:53 PM 25.0 °F 13.6 °F 18.0 °F 75% 30.40 in 10.0 mi SW 12.7 mph 19.6 mph N/A   Overcast
9:53 PM 24.1 °F 11.5 °F 18.0 °F 77% 30.39 in 10.0 mi SW 15.0 mph 23.0 mph N/A   Overcast
10:49 PM 24.8 °F 16.9 °F 17.6 °F 74% 30.32 in 10.0 mi SW 6.9 mph - N/A   Partly Cloudy
10:53 PM 24.1 °F 13.1 °F 18.0 °F 77% 30.38 in 10.0 mi SW 11.5 mph - N/A   Partly Cloudy
11:53 PM 23.0 °F 14.7 °F 18.0 °F 81% 30.37 in 10.0 mi SW 6.9 mph - N/A   Clear